This is the latest recevied weather packets stored in our database for station/object G1SCQ. If no packets are shown the sender has not sent any weather packets the latest 10 day(s).
| Time | Temp. | Humidity | Pressure | Rain* | Wind** | Luminosity | Snow |
|---|---|---|---|---|---|---|---|
| 1778188686 | 7.78° C | 87% | 1017.1 hPa | 0 mm | - | 0 W/m² | - |
| 1778188146 | 8.33° C | 87% | 1016.9 hPa | 0 mm | - | 0 W/m² | - |
| 1778187606 | 8.33° C | 86% | 1016.7 hPa | 0 mm | - | 0 W/m² | - |
| 1778187246 | 8.33° C | 85% | 1016.9 hPa | 0 mm | - | 0 W/m² | - |
| 1778186706 | 8.89° C | 85% | 1016.4 hPa | 0 mm | - | 0 W/m² | - |
| 1778186166 | 8.89° C | 84% | 1016.6 hPa | 0 mm | - | 0 W/m² | - |
| 1778185626 | 8.89° C | 83% | 1016.4 hPa | 0 mm | - | 0 W/m² | - |
| 1778185086 | 9.44° C | 83% | 1016.3 hPa | 0 mm | - | 0 W/m² | - |
| 1778184545 | 9.44° C | 82% | 1016.2 hPa | 0 mm | - | 0 W/m² | - |
| 1778184006 | 10° C | 81% | 1016.1 hPa | 0 mm | - | 0 W/m² | - |
| 1778183646 | 10° C | 81% | 1016 hPa | 0 mm | - | 0 W/m² | - |
| 1778183106 | 10° C | 80% | 1016.1 hPa | 0 mm | - | 1 W/m² | - |
| 1778182566 | 10° C | 79% | 1016.1 hPa | 0 mm | - | 1 W/m² | - |
| 1778182025 | 10.56° C | 79% | 1016.1 hPa | 0 mm | - | 2 W/m² | - |
| 1778181486 | 10.56° C | 78% | 1016.2 hPa | 0 mm | - | 3 W/m² | - |
| 1778180945 | 11.11° C | 77% | 1016.1 hPa | 0 mm | - | 6 W/m² | - |
| 1778180405 | 11.11° C | 77% | 1016.1 hPa | 0 mm | - | 10 W/m² | - |
| 1778180046 | 11.11° C | 77% | 1015.9 hPa | 0 mm | - | 12 W/m² | - |
| 1778179505 | 11.11° C | 76% | 1016 hPa | 0 mm | - | 13 W/m² | - |
| 1778178965 | 11.11° C | 76% | 1016 hPa | 0 mm | - | 15 W/m² | - |
| 1778178426 | 11.11° C | 75% | 1015.9 hPa | 0 mm | - | 17 W/m² | - |
| 1778177886 | 11.67° C | 74% | 1015.8 hPa | 0 mm | - | 18 W/m² | - |
| 1778177346 | 11.67° C | 73% | 1015.8 hPa | 0 mm | - | 21 W/m² | - |
| 1778176806 | 12.22° C | 72% | 1015.9 hPa | 0 mm | - | 27 W/m² | - |
| 1778176445 | 12.22° C | 72% | 1015.7 hPa | 0 mm | - | 33 W/m² | - |
* Rain latest hour (hover to see other rain measurements)
** Current wind speed in m/s (hover to see current wind gust speed)